SAS2533 EKCH-EGBB

Flight info

Callsign SAS2533
Flight time 1h 36m
Altitude 38000
Route LANGO DCT ALASA DCT NOGRO M40 SABER L980 LAM L610 HEMEL
Aircraft A320/M-SDE3FGHIRWY/LB1

Departure

Time 2026-04-22 13:31
Airport Copenhagen Kastrup Airport (EKCH)

Arrival

Time 2026-04-22 15:07
Airport Birmingham Airport (EGBB)
Time Latitude Longitude Altitude Speed Heading
2026-04-22 12:58 55.62737 12.65179 20 ft 0 kts 356°
2026-04-22 13:19 55.62735 12.65180 19 ft 1 kts 356°
2026-04-22 13:19 55.62717 12.65181 22 ft 3 kts 356°
2026-04-22 13:19 55.62697 12.65183 22 ft 3 kts 352°
2026-04-22 13:19 55.62678 12.65192 20 ft 3 kts 330°
2026-04-22 13:20 55.62663 12.65213 22 ft 3 kts 302°
2026-04-22 13:20 55.62655 12.65245 21 ft 3 kts 275°
2026-04-22 13:20 55.62654 12.65279 19 ft 3 kts 289°
2026-04-22 13:20 55.62644 12.65307 21 ft 3 kts 329°
2026-04-22 13:21 55.62627 12.65319 20 ft 2 kts 357°
2026-04-22 13:21 55.62615 12.65320 21 ft 3 kts 359°
2026-04-22 13:21 55.62603 12.65320 20 ft 0 kts 359°
2026-04-22 13:23 55.62613 12.65318 19 ft 3 kts 352°
2026-04-22 13:23 55.62643 12.65295 19 ft 6 kts 319°
2026-04-22 13:23 55.62650 12.65219 19 ft 8 kts 239°
2026-04-22 13:24 55.62594 12.65178 19 ft 10 kts 182°
2026-04-22 13:24 55.62512 12.65182 19 ft 13 kts 177°
2026-04-22 13:24 55.62418 12.65189 22 ft 14 kts 178°
2026-04-22 13:24 55.62320 12.65206 21 ft 15 kts 167°
2026-04-22 13:25 55.62218 12.65186 23 ft 14 kts 200°
2026-04-22 13:25 55.62132 12.65096 23 ft 15 kts 212°
2026-04-22 13:25 55.62031 12.64976 21 ft 19 kts 213°
2026-04-22 13:25 55.61906 12.64833 16 ft 21 kts 212°
2026-04-22 13:26 55.61831 12.64748 19 ft 19 kts 213°
2026-04-22 13:26 55.61716 12.64617 21 ft 20 kts 214°
2026-04-22 13:26 55.61595 12.64479 25 ft 22 kts 211°
2026-04-22 13:26 55.61464 12.64324 23 ft 24 kts 212°
2026-04-22 13:27 55.61313 12.64148 20 ft 27 kts 213°
2026-04-22 13:27 55.61146 12.63952 20 ft 29 kts 212°
2026-04-22 13:27 55.60979 12.63766 23 ft 28 kts 214°
2026-04-22 13:27 55.60825 12.63606 21 ft 21 kts 189°
2026-04-22 13:28 55.60729 12.63710 22 ft 0 kts 129°
2026-04-22 13:28 55.60728 12.63712 22 ft 1 kts 129°
2026-04-22 13:28 55.60713 12.63743 22 ft 5 kts 129°
2026-04-22 13:28 55.60694 12.63804 22 ft 6 kts 107°
2026-04-22 13:29 55.60693 12.63879 23 ft 6 kts 73°
2026-04-22 13:29 55.60723 12.63942 24 ft 4 kts 36°
2026-04-22 13:29 55.60730 12.63957 24 ft 0 kts 44°
2026-04-22 13:30 55.60918 12.64242 22 ft 82 kts 40°
2026-04-22 13:30 55.61550 12.65218 26 ft 155 kts 36°
2026-04-22 13:30 55.62404 12.66592 512 ft 175 kts 36°
2026-04-22 13:31 55.63345 12.68072 1163 ft 189 kts 36°
2026-04-22 13:31 55.64398 12.69681 1551 ft 212 kts 35°
2026-04-22 13:31 55.65582 12.71478 1985 ft 236 kts 35°
2026-04-22 13:31 55.66871 12.73390 2732 ft 245 kts 35°
2026-04-22 13:32 55.68182 12.75341 3687 ft 247 kts 35°
2026-04-22 13:32 55.69509 12.77319 4568 ft 252 kts 36°
2026-04-22 13:32 55.70795 12.79467 4897 ft 257 kts 47°
2026-04-22 13:32 55.71618 12.82315 5120 ft 268 kts 72°
2026-04-22 13:33 55.71686 12.85649 6059 ft 277 kts 96°
2026-04-22 13:33 55.70943 12.88849 6949 ft 289 kts 123°
2026-04-22 13:33 55.69401 12.91186 7788 ft 299 kts 153°
2026-04-22 13:33 55.67393 12.92196 8623 ft 304 kts 174°
2026-04-22 13:34 55.65275 12.92500 9468 ft 307 kts 175°
2026-04-22 13:34 55.63127 12.92783 10297 ft 311 kts 175°
2026-04-22 13:34 55.60960 12.92690 11020 ft 315 kts 195°
2026-04-22 13:34 55.59039 12.90914 11728 ft 314 kts 223°
2026-04-22 13:35 55.57455 12.88233 12468 ft 317 kts 227°
2026-04-22 13:35 55.55917 12.85420 13205 ft 320 kts 228°
2026-04-22 13:35 55.54383 12.82533 13926 ft 324 kts 228°
2026-04-22 13:35 55.52836 12.79607 14577 ft 327 kts 230°
2026-04-22 13:36 55.51657 12.76212 15184 ft 326 kts 256°
2026-04-22 13:36 55.51339 12.72273 15807 ft 325 kts 269°
2026-04-22 13:36 55.51189 12.68272 16438 ft 328 kts 269°
2026-04-22 13:36 55.51054 12.64223 17081 ft 332 kts 269°
2026-04-22 13:37 55.50919 12.60146 17711 ft 335 kts 269°
2026-04-22 13:37 55.50776 12.56019 18332 ft 339 kts 269°
2026-04-22 13:37 55.50625 12.51851 18903 ft 342 kts 268°
2026-04-22 13:37 55.50464 12.47640 19455 ft 345 kts 268°
2026-04-22 13:38 55.50296 12.43401 20009 ft 348 kts 268°
2026-04-22 13:38 55.49951 12.34800 21126 ft 354 kts 268°
2026-04-22 13:38 55.49777 12.30446 21654 ft 357 kts 268°
2026-04-22 13:39 55.49572 12.26062 22166 ft 361 kts 262°
2026-04-22 13:39 55.48714 12.21893 22637 ft 366 kts 240°
2026-04-22 13:39 55.47351 12.18084 23141 ft 369 kts 234°
2026-04-22 13:39 55.45807 12.14450 23656 ft 372 kts 231°
2026-04-22 13:40 55.44175 12.10897 24118 ft 375 kts 230°
2026-04-22 13:40 55.42511 12.07327 24520 ft 379 kts 230°
2026-04-22 13:40 55.40828 12.03650 24915 ft 383 kts 230°
2026-04-22 13:40 55.39179 11.99950 25299 ft 387 kts 231°
2026-04-22 13:41 55.37557 11.96223 25678 ft 390 kts 231°
2026-04-22 13:41 55.35916 11.92392 26072 ft 394 kts 231°
2026-04-22 13:41 55.34243 11.88468 26463 ft 398 kts 231°
2026-04-22 13:41 55.32570 11.84555 26864 ft 402 kts 230°
2026-04-22 13:42 55.30901 11.80674 27244 ft 406 kts 230°
2026-04-22 13:42 55.29187 11.76714 27641 ft 409 kts 230°
2026-04-22 13:42 55.27432 11.72680 28033 ft 413 kts 229°
2026-04-22 13:42 55.25682 11.68662 28443 ft 416 kts 229°
2026-04-22 13:43 55.23964 11.64541 28843 ft 421 kts 232°
2026-04-22 13:43 55.22326 11.60264 29233 ft 425 kts 234°
2026-04-22 13:43 55.20734 11.55872 29633 ft 429 kts 234°
2026-04-22 13:43 55.19153 11.51424 30014 ft 432 kts 234°
2026-04-22 13:44 55.17553 11.46938 30386 ft 436 kts 234°
2026-04-22 13:44 55.15928 11.42451 30718 ft 438 kts 233°
2026-04-22 13:44 55.14273 11.37951 31047 ft 441 kts 233°
2026-04-22 13:44 55.12596 11.33448 31375 ft 444 kts 233°
2026-04-22 13:45 55.10898 11.28924 31709 ft 446 kts 233°
2026-04-22 13:45 55.09187 11.24379 32038 ft 449 kts 233°
2026-04-22 13:45 55.07468 11.19816 32361 ft 452 kts 232°
2026-04-22 13:45 55.05736 11.15220 32675 ft 454 kts 232°
2026-04-22 13:46 55.03999 11.10603 32977 ft 457 kts 233°
2026-04-22 13:46 55.02251 11.05958 33281 ft 459 kts 233°
2026-04-22 13:46 55.00495 11.01299 33594 ft 461 kts 233°
2026-04-22 13:46 54.98725 10.96620 33897 ft 463 kts 232°
2026-04-22 13:47 54.96945 10.91932 34188 ft 466 kts 232°
2026-04-22 13:47 54.95155 10.87224 34452 ft 468 kts 233°
2026-04-22 13:47 54.93353 10.82498 34716 ft 469 kts 233°
2026-04-22 13:47 54.91538 10.77781 34997 ft 470 kts 233°
2026-04-22 13:48 54.89707 10.73066 35267 ft 471 kts 233°
2026-04-22 13:48 54.87861 10.68357 35533 ft 472 kts 233°
2026-04-22 13:48 54.86000 10.63653 35786 ft 473 kts 233°
2026-04-22 13:48 54.84127 10.58960 36037 ft 474 kts 232°
2026-04-22 13:49 54.82308 10.54435 36273 ft 475 kts 232°
2026-04-22 13:49 54.80405 10.49734 36511 ft 477 kts 232°
2026-04-22 13:49 54.78490 10.45039 36742 ft 478 kts 232°
2026-04-22 13:49 54.76563 10.40346 36968 ft 479 kts 232°
2026-04-22 13:50 54.74624 10.35652 37180 ft 480 kts 232°
2026-04-22 13:50 54.72670 10.30950 37392 ft 481 kts 232°
2026-04-22 13:50 54.70709 10.26259 37592 ft 482 kts 232°
2026-04-22 13:50 54.68733 10.21557 37737 ft 485 kts 232°
2026-04-22 13:51 54.66757 10.16810 37867 ft 488 kts 236°
2026-04-22 13:51 54.65340 10.11503 37998 ft 489 kts 257°
2026-04-22 13:51 54.65017 10.05711 38136 ft 485 kts 278°
2026-04-22 13:51 54.65824 10.00127 38300 ft 477 kts 298°
2026-04-22 13:52 54.67630 9.95414 38362 ft 469 kts 319°
2026-04-22 13:52 54.70190 9.92036 38372 ft 463 kts 334°
2026-04-22 13:52 54.72884 9.88923 38357 ft 472 kts 321°
2026-04-22 13:52 54.74997 9.84509 38373 ft 484 kts 302°
2026-04-22 13:53 54.76302 9.79094 38373 ft 493 kts 285°
2026-04-22 13:53 54.76734 9.73181 38372 ft 500 kts 269°
2026-04-22 13:53 54.76235 9.67217 38372 ft 503 kts 252°
2026-04-22 13:53 54.74794 9.61724 38376 ft 503 kts 237°
2026-04-22 13:54 54.70988 9.51547 38368 ft 504 kts 236°
2026-04-22 13:54 54.67107 9.41469 38367 ft 504 kts 235°
2026-04-22 13:55 54.63220 9.31393 38379 ft 505 kts 236°
2026-04-22 13:55 54.59341 9.21315 38370 ft 503 kts 236°
2026-04-22 13:56 54.55479 9.11273 38378 ft 502 kts 236°
2026-04-22 13:56 54.51615 9.01261 38387 ft 502 kts 236°
2026-04-22 13:57 54.47735 8.91283 38398 ft 501 kts 235°
2026-04-22 13:57 54.43851 8.81341 38408 ft 501 kts 236°
2026-04-22 13:58 54.39957 8.71412 38419 ft 502 kts 235°
2026-04-22 13:58 54.36057 8.61482 38430 ft 502 kts 235°
2026-04-22 13:59 54.32149 8.51571 38438 ft 502 kts 235°
2026-04-22 13:59 54.28233 8.41682 38438 ft 502 kts 235°
2026-04-22 14:00 54.24303 8.31822 38446 ft 501 kts 235°
2026-04-22 14:00 54.20367 8.21999 38448 ft 501 kts 235°
2026-04-22 14:01 54.16429 8.12205 38450 ft 500 kts 235°
2026-04-22 14:01 54.12496 8.02425 38458 ft 500 kts 235°
2026-04-22 14:02 54.08560 7.92663 38460 ft 499 kts 235°
2026-04-22 14:02 54.04610 7.82951 38459 ft 499 kts 235°
2026-04-22 14:03 54.00656 7.73262 38463 ft 499 kts 235°
2026-04-22 14:03 53.96695 7.63574 38461 ft 498 kts 235°
2026-04-22 14:04 53.93378 7.55480 38466 ft 498 kts 235°
2026-04-22 14:04 53.89411 7.45848 38467 ft 498 kts 235°
2026-04-22 14:05 53.85438 7.36245 38468 ft 497 kts 235°
2026-04-22 14:06 53.79473 7.21897 38467 ft 497 kts 235°
2026-04-22 14:06 53.75485 7.12354 38466 ft 497 kts 235°
2026-04-22 14:07 53.71496 7.02838 38464 ft 496 kts 235°
2026-04-22 14:07 53.67501 6.93340 38464 ft 496 kts 235°
2026-04-22 14:08 53.63506 6.83854 38464 ft 496 kts 235°
2026-04-22 14:08 53.59499 6.74390 38466 ft 496 kts 234°
2026-04-22 14:09 53.55485 6.64962 38464 ft 496 kts 234°
2026-04-22 14:09 53.51461 6.55555 38462 ft 495 kts 234°
2026-04-22 14:10 53.47432 6.46178 38462 ft 495 kts 234°
2026-04-22 14:10 53.43409 6.36823 38458 ft 494 kts 234°
2026-04-22 14:11 53.39384 6.27485 38455 ft 494 kts 234°
2026-04-22 14:11 53.35349 6.18189 38455 ft 493 kts 234°
2026-04-22 14:12 53.31310 6.08901 38461 ft 493 kts 234°
2026-04-22 14:12 53.27277 5.99659 38427 ft 491 kts 234°
2026-04-22 14:13 53.23249 5.90476 38439 ft 490 kts 234°
2026-04-22 14:13 53.19217 5.81316 38436 ft 490 kts 234°
2026-04-22 14:14 53.15175 5.72180 38436 ft 489 kts 234°
2026-04-22 14:14 53.11138 5.63054 38440 ft 490 kts 234°
2026-04-22 14:15 53.07091 5.53930 38445 ft 491 kts 234°
2026-04-22 14:15 53.03029 5.44814 38448 ft 491 kts 234°
2026-04-22 14:16 52.98960 5.35741 38430 ft 489 kts 234°
2026-04-22 14:16 52.94895 5.26718 38428 ft 488 kts 234°
2026-04-22 14:17 52.90829 5.17712 38432 ft 488 kts 234°
2026-04-22 14:17 52.86744 5.08663 38430 ft 487 kts 234°
2026-04-22 14:18 52.82672 4.99700 38431 ft 487 kts 234°
2026-04-22 14:18 52.78595 4.90762 38437 ft 487 kts 234°
2026-04-22 14:19 52.74534 4.81886 38445 ft 488 kts 233°
2026-04-22 14:19 52.70410 4.72911 38448 ft 488 kts 233°
2026-04-22 14:20 52.64250 4.59567 38441 ft 487 kts 233°
2026-04-22 14:20 52.60149 4.50683 38435 ft 488 kts 233°
2026-04-22 14:21 52.53972 4.37385 38437 ft 488 kts 233°
2026-04-22 14:22 52.47789 4.24194 38410 ft 485 kts 233°
2026-04-22 14:23 52.41620 4.11066 38410 ft 484 kts 233°
2026-04-22 14:23 52.37507 4.02352 38405 ft 484 kts 233°
2026-04-22 14:24 52.33376 3.93637 38413 ft 484 kts 233°
2026-04-22 14:24 52.29245 3.84931 38418 ft 485 kts 234°
2026-04-22 14:25 52.25099 3.76244 38421 ft 485 kts 233°
2026-04-22 14:25 52.20940 3.67567 38423 ft 486 kts 233°
2026-04-22 14:26 52.16776 3.58893 38434 ft 486 kts 234°
2026-04-22 14:26 52.12606 3.50227 38426 ft 486 kts 233°
2026-04-22 14:27 52.08433 3.41583 38418 ft 486 kts 234°
2026-04-22 14:27 52.04248 3.32947 38414 ft 486 kts 233°
2026-04-22 14:28 52.00055 3.24349 38411 ft 486 kts 233°
2026-04-22 14:28 51.96734 3.14972 38414 ft 478 kts 256°
2026-04-22 14:28 51.96069 3.09734 38412 ft 473 kts 267°
2026-04-22 14:29 51.95735 3.04432 38403 ft 473 kts 266°
2026-04-22 14:29 51.95053 2.93821 38407 ft 473 kts 266°
2026-04-22 14:30 51.94346 2.83216 38415 ft 473 kts 266°
2026-04-22 14:30 51.93627 2.72622 38415 ft 473 kts 266°
2026-04-22 14:31 51.92903 2.62030 38414 ft 473 kts 266°
2026-04-22 14:31 51.92176 2.51456 38416 ft 472 kts 266°
2026-04-22 14:32 51.91443 2.40887 38415 ft 472 kts 266°
2026-04-22 14:32 51.90724 2.30337 38417 ft 471 kts 268°
2026-04-22 14:33 51.90369 2.19773 38420 ft 469 kts 271°
2026-04-22 14:33 51.90238 2.09237 38415 ft 468 kts 271°
2026-04-22 14:34 51.90059 1.98706 38417 ft 468 kts 270°
2026-04-22 14:34 51.89603 1.88213 38417 ft 470 kts 261°
2026-04-22 14:35 51.87643 1.78066 38418 ft 472 kts 254°
2026-04-22 14:35 51.85576 1.67976 38413 ft 472 kts 255°
2026-04-22 14:36 51.83522 1.57891 38412 ft 472 kts 255°
2026-04-22 14:36 51.81452 1.47821 38408 ft 472 kts 254°
2026-04-22 14:37 51.79375 1.37775 38406 ft 471 kts 254°
2026-04-22 14:37 51.77286 1.27754 38370 ft 469 kts 254°
2026-04-22 14:38 51.75200 1.17788 38372 ft 468 kts 254°
2026-04-22 14:38 51.73112 1.07832 38370 ft 468 kts 254°
2026-04-22 14:39 51.71016 0.97897 38372 ft 468 kts 255°
2026-04-22 14:39 51.69888 0.87687 38375 ft 462 kts 266°
2026-04-22 14:40 51.68803 0.72260 38385 ft 462 kts 266°
2026-04-22 14:40 51.68064 0.61975 38395 ft 462 kts 266°
2026-04-22 14:41 51.67441 0.53358 38397 ft 462 kts 266°
2026-04-22 14:41 51.66696 0.43068 38395 ft 462 kts 266°
2026-04-22 14:42 51.65943 0.32806 38382 ft 461 kts 265°
2026-04-22 14:42 51.65173 0.22556 38382 ft 460 kts 266°
2026-04-22 14:43 51.65578 0.12453 38381 ft 451 kts 288°
2026-04-22 14:43 51.67984 0.03198 38376 ft 448 kts 295°
2026-04-22 14:44 51.70560 -0.05939 38474 ft 447 kts 295°
2026-04-22 14:44 51.73115 -0.15077 38488 ft 447 kts 295°
2026-04-22 14:45 51.75657 -0.24206 38456 ft 441 kts 295°
2026-04-22 14:45 51.76889 -0.28645 38430 ft 426 kts 295°
2026-04-22 14:45 51.78089 -0.32985 37977 ft 422 kts 295°
2026-04-22 14:46 51.79279 -0.37293 37405 ft 418 kts 295°
2026-04-22 14:46 51.80649 -0.41387 36981 ft 412 kts 309°
2026-04-22 14:46 51.82660 -0.44629 36563 ft 408 kts 320°
2026-04-22 14:46 51.84961 -0.47278 36139 ft 405 kts 327°
2026-04-22 14:47 51.87406 -0.49526 35733 ft 402 kts 330°
2026-04-22 14:47 51.89887 -0.51586 35346 ft 399 kts 331°
2026-04-22 14:47 51.92341 -0.53625 34956 ft 395 kts 330°
2026-04-22 14:47 51.94757 -0.55738 34503 ft 391 kts 329°
2026-04-22 14:48 51.97089 -0.57894 33790 ft 383 kts 328°
2026-04-22 14:48 51.99356 -0.60088 32994 ft 377 kts 327°
2026-04-22 14:48 52.01580 -0.62295 32232 ft 371 kts 327°
2026-04-22 14:48 52.03764 -0.64481 31501 ft 366 kts 327°
2026-04-22 14:49 52.05923 -0.66635 30795 ft 362 kts 327°
2026-04-22 14:49 52.08054 -0.68753 30067 ft 357 kts 327°
2026-04-22 14:49 52.10166 -0.70843 29274 ft 353 kts 327°
2026-04-22 14:49 52.12257 -0.72909 28531 ft 350 kts 328°
2026-04-22 14:50 52.14335 -0.74958 27794 ft 348 kts 328°
2026-04-22 14:50 52.16407 -0.76995 27170 ft 349 kts 328°
2026-04-22 14:50 52.18540 -0.79100 26500 ft 364 kts 328°
2026-04-22 14:50 52.20731 -0.81268 25319 ft 371 kts 328°
2026-04-22 14:51 52.22934 -0.83470 24391 ft 371 kts 326°
2026-04-22 14:51 52.24756 -0.86375 23533 ft 368 kts 303°
2026-04-22 14:51 52.25851 -0.90147 22531 ft 369 kts 291°
2026-04-22 14:51 52.26537 -0.94181 21539 ft 370 kts 283°
2026-04-22 14:52 52.26995 -0.98312 20543 ft 370 kts 279°
2026-04-22 14:52 52.27372 -1.02416 20103 ft 355 kts 278°
2026-04-22 14:52 52.27747 -1.06306 19733 ft 341 kts 279°
2026-04-22 14:52 52.28165 -1.10081 19128 ft 336 kts 280°
2026-04-22 14:53 52.28628 -1.13820 18412 ft 335 kts 281°
2026-04-22 14:53 52.29122 -1.17529 17679 ft 335 kts 281°
2026-04-22 14:53 52.29633 -1.21250 17255 ft 335 kts 281°
2026-04-22 14:53 52.30145 -1.24953 16885 ft 333 kts 281°
2026-04-22 14:54 52.30653 -1.28641 16515 ft 332 kts 281°
2026-04-22 14:54 52.31153 -1.32312 16147 ft 331 kts 281°
2026-04-22 14:54 52.31648 -1.35980 15798 ft 330 kts 280°
2026-04-22 14:54 52.32137 -1.39642 15423 ft 329 kts 280°
2026-04-22 14:55 52.32624 -1.43285 15101 ft 328 kts 280°
2026-04-22 14:55 52.33112 -1.46937 14620 ft 323 kts 280°
2026-04-22 14:55 52.33581 -1.50479 13985 ft 321 kts 279°
2026-04-22 14:55 52.34057 -1.54081 13277 ft 318 kts 279°
2026-04-22 14:56 52.34522 -1.57598 12645 ft 316 kts 279°
2026-04-22 14:56 52.34983 -1.61090 12024 ft 313 kts 279°
2026-04-22 14:56 52.35438 -1.64559 11419 ft 311 kts 279°
2026-04-22 14:56 52.35614 -1.68020 10815 ft 303 kts 263°
2026-04-22 14:57 52.35487 -1.71449 10209 ft 301 kts 263°
2026-04-22 14:57 52.35361 -1.74847 9590 ft 299 kts 263°
2026-04-22 14:57 52.35236 -1.78234 8963 ft 297 kts 263°
2026-04-22 14:57 52.35110 -1.81596 8353 ft 295 kts 263°
2026-04-22 14:58 52.34983 -1.84932 7747 ft 293 kts 263°
2026-04-22 14:58 52.34855 -1.88245 7163 ft 291 kts 262°
2026-04-22 14:58 52.34727 -1.91548 6640 ft 291 kts 262°
2026-04-22 14:58 52.34597 -1.94846 6328 ft 290 kts 263°
2026-04-22 14:59 52.34467 -1.98127 6002 ft 289 kts 263°
2026-04-22 14:59 52.34340 -2.01412 5651 ft 290 kts 263°
2026-04-22 14:59 52.34211 -2.04698 5322 ft 290 kts 263°
2026-04-22 14:59 52.34343 -2.07985 5036 ft 292 kts 289°
2026-04-22 15:00 52.35449 -2.10689 4995 ft 289 kts 324°
2026-04-22 15:00 52.37172 -2.12308 4962 ft 284 kts 345°
2026-04-22 15:00 52.39064 -2.12824 4580 ft 271 kts
2026-04-22 15:00 52.40845 -2.12146 4296 ft 259 kts 30°
2026-04-22 15:01 52.42313 -2.10577 4004 ft 249 kts 43°
2026-04-22 15:01 52.43670 -2.08836 3683 ft 246 kts 42°
2026-04-22 15:01 52.45023 -2.07122 3443 ft 245 kts 42°
2026-04-22 15:01 52.46363 -2.05429 3160 ft 242 kts 42°
2026-04-22 15:02 52.47685 -2.03755 2908 ft 240 kts 42°
2026-04-22 15:02 52.49006 -2.02082 2671 ft 238 kts 42°
2026-04-22 15:02 52.50298 -2.00442 2529 ft 232 kts 42°
2026-04-22 15:02 52.51567 -1.98831 2506 ft 231 kts 43°
2026-04-22 15:03 52.52838 -1.97211 2514 ft 231 kts 42°
2026-04-22 15:03 52.54072 -1.95546 2499 ft 227 kts 51°
2026-04-22 15:03 52.54944 -1.93529 2498 ft 208 kts 68°
2026-04-22 15:03 52.55367 -1.91347 2496 ft 194 kts 83°
2026-04-22 15:04 52.55394 -1.89241 2533 ft 177 kts 96°
2026-04-22 15:04 52.55105 -1.87314 2446 ft 173 kts 109°
2026-04-22 15:04 52.54541 -1.85607 2289 ft 165 kts 121°
2026-04-22 15:04 52.53811 -1.84294 2140 ft 147 kts 131°
2026-04-22 15:05 52.53004 -1.83301 1945 ft 143 kts 139°
2026-04-22 15:05 52.52191 -1.82393 1755 ft 141 kts 138°
2026-04-22 15:05 52.51404 -1.81517 1575 ft 133 kts 137°
2026-04-22 15:05 52.50650 -1.80675 1397 ft 130 kts 137°
2026-04-22 15:06 52.50159 -1.80127 1284 ft 129 kts 137°
2026-04-22 15:06 52.49192 -1.79048 1031 ft 122 kts 138°
2026-04-22 15:06 52.48502 -1.78278 860 ft 119 kts 138°
2026-04-22 15:06 52.47819 -1.77518 699 ft 119 kts 138°
2026-04-22 15:07 52.47135 -1.76755 553 ft 120 kts 138°
2026-04-22 15:07 52.46437 -1.75976 385 ft 123 kts 136°
2026-04-22 15:07 52.45782 -1.75234 323 ft 78 kts 146°
2026-04-22 15:07 52.45523 -1.74951 323 ft 39 kts 147°
2026-04-22 15:08 52.45399 -1.74807 325 ft 12 kts 125°
2026-04-22 15:08 52.45430 -1.74682 326 ft 13 kts 54°
2026-04-22 15:08 52.45463 -1.74535 326 ft 15 kts 110°
2026-04-22 15:08 52.45415 -1.74372 326 ft 17 kts 115°
2026-04-22 15:09 52.45357 -1.74192 327 ft 19 kts 116°
2026-04-22 15:09 52.45308 -1.73994 328 ft 17 kts 86°
2026-04-22 15:09 52.45325 -1.73901 330 ft 2 kts 88°
2026-04-22 15:09 52.45326 -1.73895 326 ft 1 kts 75°
2026-04-22 15:10 52.45375 -1.73876 330 ft 11 kts 338°
2026-04-22 15:10 52.45381 -1.73889 326 ft 0 kts 305°
2026-04-22 15:10 52.45414 -1.73947 329 ft 14 kts 279°
2026-04-22 15:11 52.45346 -1.73976 327 ft 11 kts 158°
2026-04-22 15:11 52.45330 -1.73888 326 ft 8 kts 135°
2026-04-22 15:11 52.45280 -1.73828 331 ft 3 kts 143°
2026-04-22 15:11 52.45279 -1.73826 331 ft 0 kts 144°
2026-04-22 15:14 52.45278 -1.73826 331 ft 0 kts 144°